Date String (YYYY-MM-DD hh:mm:ss) UTC,Instrument flags,Ambient pressure (hPa),Sample flow (lpm),Bypass flow (lpm),Sample temperature (°C),Ambient temperature (°C),ASC tube jacket temperature (°C),LED temperature (°C),Box temperature (°C),Sample RH (%),Span deviation,Mass concentration (μg/m³),Mass concentration (μg/m³),Mass concentration (μg/m³)
DateTimeUTC,F1_M11,P_M11,Q1_M11,Q2_M11,T1_M11,T2_M11,T3_M11,T4_M11,T5_M11,U1_M11,ZSPAN_M11,X2_M11,X0_M11,X1_M11
2022-05-06 01:00:00,,0822.4,5.01,0.00,29.7,27.0,00.0,38.7,31.3,11.8,0000.0,0004.16,0008.77,0003.00
2022-05-06 01:01:00,,0822.4,4.99,0.00,29.7,27.4,00.0,38.7,31.3,11.5,0000.0,0004.17,0008.86,0002.97
2022-05-06 01:02:00,,0822.4,5.00,0.00,29.7,27.7,00.0,38.7,31.4,12.1,0000.0,0004.15,0008.75,0002.94
2022-05-06 01:03:00,,0822.4,5.01,0.00,29.7,27.9,00.0,38.7,31.4,12.1,0000.0,0004.18,0008.85,0002.91
2022-05-06 01:04:00,,0822.4,5.00,0.00,29.7,28.2,00.0,38.7,31.5,11.9,0000.0,0004.18,0008.83,0002.90
2022-05-06 01:05:00,,0822.4,4.99,0.00,29.7,28.3,00.0,38.7,31.5,11.8,0000.0,0004.21,0008.92,0002.92
2022-05-06 01:06:00,,0822.5,4.99,0.00,29.8,28.5,00.0,38.7,31.5,11.6,0000.0,0004.23,0009.01,0002.90
2022-05-06 01:07:00,,0822.4,5.02,0.00,29.8,28.6,00.0,38.7,31.6,11.6,0000.0,0004.20,0008.91,0002.89
2022-05-06 01:08:00,,0822.5,4.99,0.00,29.8,28.7,00.0,38.7,31.6,11.6,0000.0,0004.16,0008.70,0002.88
2022-05-06 01:09:00,,0822.5,5.00,0.00,29.8,28.8,00.0,38.7,31.6,11.8,0000.0,0004.15,0008.69,0002.88
2022-05-06 01:10:00,,0822.5,5.00,0.00,29.9,28.9,00.0,38.7,31.7,11.8,0000.0,0004.19,0008.78,0002.90
2022-05-06 01:11:00,,0822.6,5.00,0.00,29.9,29.0,00.0,38.7,31.7,11.6,0000.0,0004.27,0009.24,0002.93
2022-05-06 01:12:00,,0822.6,5.01,0.00,29.9,29.0,00.0,38.7,31.7,11.6,0000.0,0004.27,0009.35,0002.93
2022-05-06 01:13:00,,0822.5,4.99,0.00,29.9,29.1,00.0,38.7,31.8,11.6,0000.0,0004.30,0009.47,0002.93
2022-05-06 01:14:00,,0822.5,5.01,0.00,30.0,29.1,00.0,38.8,31.9,11.6,0000.0,0004.29,0009.49,0002.92
2022-05-06 01:15:00,,0822.4,5.01,0.00,30.0,29.1,00.0,38.8,31.9,12.1,0000.0,0004.30,0009.58,0002.89
2022-05-06 01:16:00,,0822.5,4.99,0.00,30.0,29.2,00.0,38.8,31.9,12.2,0000.0,0004.28,0009.55,0002.86
2022-05-06 01:17:00,,0822.5,5.00,0.00,30.0,29.2,00.0,38.8,31.9,12.2,0000.0,0004.25,0009.49,0002.84
2022-05-06 01:18:00,,0822.5,5.00,0.00,30.0,29.2,00.0,38.9,31.9,12.2,0000.0,0004.27,0009.63,0002.82
2022-05-06 01:19:00,,0822.5,5.00,0.00,30.1,29.3,00.0,38.9,31.9,12.3,0000.0,0004.30,0009.87,0002.82
2022-05-06 01:20:00,,0822.5,4.99,0.00,30.1,29.3,00.0,38.9,31.8,11.6,0000.0,0004.23,0009.63,0002.77
2022-05-06 01:21:00,,0822.5,5.01,0.00,30.1,29.3,00.0,38.9,31.9,11.9,0000.0,0004.16,0009.53,0002.73
2022-05-06 01:22:00,,0822.5,4.99,0.00,30.1,29.4,00.0,38.9,31.9,12.0,0000.0,0004.12,0009.36,0002.73
2022-05-06 01:23:00,,0822.5,5.01,0.00,30.1,29.4,00.0,38.9,32.0,11.7,0000.0,0004.10,0009.62,0002.73
2022-05-06 01:24:00,,0822.5,5.00,0.00,30.1,29.4,00.0,39.0,32.0,11.7,0000.0,0004.06,0009.80,0002.71
2022-05-06 01:25:00,,0822.5,4.99,0.00,30.2,29.4,00.0,39.0,32.0,11.9,0000.0,0004.05,0009.77,0002.71
2022-05-06 01:26:00,,0822.4,5.02,0.00,30.2,28.9,00.0,39.0,31.9,11.7,0000.0,0004.03,0009.66,0002.73
2022-05-06 01:27:00,,0822.4,5.00,0.00,30.0,26.3,00.0,38.9,31.2,12.2,0000.0,0004.03,0009.66,0002.76
2022-05-06 01:28:00,,0822.5,4.99,0.00,29.8,24.9,00.0,38.9,30.8,12.2,0000.0,0004.06,0009.71,0002.78
2022-05-06 01:29:00,,0822.4,5.00,0.00,29.7,25.2,00.0,38.8,30.9,12.7,0000.0,0004.05,0009.66,0002.79
2022-05-06 01:30:00,,0822.5,5.00,0.00,29.6,25.7,00.0,38.7,31.0,12.8,0000.0,0004.01,0009.37,0002.76
2022-05-06 01:31:00,,0822.5,5.00,0.00,29.6,26.3,00.0,38.7,31.1,12.6,0000.0,0003.96,0009.24,0002.76
2022-05-06 01:32:00,,0822.5,5.00,0.00,29.6,26.8,00.0,38.6,31.2,12.6,0000.0,0003.99,0009.32,0002.77
2022-05-06 01:33:00,,0822.4,5.00,0.00,29.6,27.2,00.0,38.6,31.2,12.6,0000.0,0003.98,0008.98,0002.77
2022-05-06 01:34:00,,0822.5,5.00,0.00,29.6,27.5,00.0,38.6,31.3,12.5,0000.0,0003.97,0008.78,0002.75
2022-05-06 01:35:00,,0822.5,5.01,0.00,29.6,27.8,00.0,38.6,31.3,12.7,0000.0,0004.00,0008.30,0002.74
2022-05-06 01:36:00,,0822.4,5.01,0.00,29.6,28.0,00.0,38.6,31.4,12.7,0000.0,0004.03,0008.28,0002.75
2022-05-06 01:37:00,,0822.4,5.00,0.00,29.6,28.2,00.0,38.6,31.4,12.9,0000.0,0004.01,0008.24,0002.74
2022-05-06 01:38:00,,0822.5,4.98,0.00,29.7,28.4,00.0,38.6,31.4,13.0,0000.0,0003.99,0008.18,0002.69
2022-05-06 01:39:00,,0822.5,5.00,0.00,29.7,28.5,00.0,38.6,31.4,13.1,0000.0,0003.95,0008.05,0002.68
2022-05-06 01:40:00,,0822.5,5.01,0.00,29.7,28.6,00.0,38.6,31.5,12.9,0000.0,0003.95,0008.05,0002.67
2022-05-06 01:41:00,,0822.5,5.00,0.00,29.7,28.7,00.0,38.6,31.5,13.0,0000.0,0003.97,0008.12,0002.68
2022-05-06 01:42:00,,0822.5,4.99,0.00,29.7,28.7,00.0,38.6,31.5,13.0,0000.0,0003.97,0008.10,0002.68
2022-05-06 01:43:00,,0822.5,5.00,0.00,29.8,28.8,00.0,38.6,31.6,13.0,0000.0,0004.02,0008.33,0002.69
2022-05-06 01:44:00,,0822.4,5.01,0.00,29.8,28.9,00.0,38.7,31.6,12.6,0000.0,0004.00,0008.52,0002.68
2022-05-06 01:45:00,,0822.5,4.99,0.00,29.8,28.9,00.0,38.7,31.7,12.5,0000.0,0003.99,0008.54,0002.69
2022-05-06 01:46:00,,0822.5,5.01,0.00,29.8,29.0,00.0,38.7,31.7,12.5,0000.0,0003.96,0008.46,0002.72
2022-05-06 01:47:00,,0822.5,5.01,0.00,29.9,29.0,00.0,38.7,31.7,12.4,0000.0,0003.95,0008.42,0002.72
2022-05-06 01:48:00,,0822.4,4.99,0.00,29.9,29.0,00.0,38.7,31.7,12.5,0000.0,0003.99,0008.51,0002.74
2022-05-06 01:49:00,,0822.4,5.01,0.00,29.9,29.1,00.0,38.7,31.8,12.6,0000.0,0004.04,0008.75,0002.75
2022-05-06 01:50:00,,0822.5,4.99,0.00,29.9,29.1,00.0,38.8,31.8,12.6,0000.0,0004.02,0008.69,0002.74
2022-05-06 01:51:00,,0822.4,4.99,0.00,29.9,29.1,00.0,38.8,31.8,12.6,0000.0,0004.01,0008.66,0002.73
2022-05-06 01:52:00,,0822.5,5.00,0.00,30.0,29.1,00.0,38.8,31.8,12.7,0000.0,0004.02,0008.90,0002.71
2022-05-06 01:53:00,,0822.5,5.02,0.00,30.0,29.2,00.0,38.8,31.8,12.7,0000.0,0004.09,0009.22,0002.72
2022-05-06 01:54:00,,0822.5,4.99,0.00,30.0,29.2,00.0,38.8,31.9,12.7,0000.0,0004.02,0008.94,0002.72
2022-05-06 01:55:00,,0822.5,5.00,0.00,30.0,29.2,00.0,38.8,31.9,12.7,0000.0,0003.99,0008.62,0002.72
2022-05-06 01:56:00,,0822.5,5.01,0.00,30.0,29.3,00.0,38.9,31.9,12.8,0000.0,0003.99,0008.59,0002.72
2022-05-06 01:57:00,,0822.6,4.99,0.00,30.1,29.3,00.0,38.9,31.9,13.0,0000.0,0003.96,0008.53,0002.70
2022-05-06 01:58:00,,0822.5,5.00,0.00,30.1,29.3,00.0,38.9,31.9,12.9,0000.0,0003.93,0008.50,0002.68
2022-05-06 01:59:00,,0822.5,4.99,0.00,30.1,29.3,00.0,38.9,31.9,12.9,0000.0,0003.92,0008.48,0002.66
